Location: Namasale
(1.5000°N, 32.6167°E)
Time: 22:07:07
(UTC+00:00)

Transit 2A - Pass Details

Date: 27 April 2021
Orbit: 602 x 957 km, 66.7° (Epoch: 11 May)

Event Time Altitude Azimuth Distance (km) Brightness Sun altitude
Rises 12:46:56 0° 1° (N) 3,059 9.3 43.9°
Reaches altitude 10° 12:49:27 10° 13° (NNE) 2,200 8.6 43.3°
Maximum altitude 12:53:45 28° 72° (ENE) 1,396 7.3 42.2°
Drops below altitude 10° 12:58:27 10° 130° (SE) 2,413 8.3 41.1°
Sets 13:01:19 0° 141° (SE) 3,412 9.0 40.4°
